Enterprise, AL

9:34 AM CST on February 28, 2017 (GMT -0600)
Fort Rucker / Ozark

Weather History for KLOR - February, 2013

Change the Weather History Date:

Thursday, February 14, 2013

  Actual Average (KOZR) Record (KOZR)
Temperature  
Mean Temperature 46 °F -  
Max Temperature 55 °F 62 °F 80 °F (2000)
Min Temperature 35 °F 40 °F 24 °F (2006)
Degree Days  
Heating Degree Days 20    
Moisture  
Dew Point 38 °F    
Average Humidity 79    
Maximum Humidity 96    
Minimum Humidity 49    
Precipitation  
Precipitation 0.00 in - - ()
Sea Level Pressure  
Sea Level Pressure 30.07 in    
Wind  
Wind Speed 3 mph (North)    
Max Wind Speed 8 mph    
Max Gust Speed -    
Visibility 8 miles    
Events      
Averages and records for this station are not official NWS values.
T = Trace of Precipitation, MM = Missing Value Source: NWS Daily Summary

Daily Weather History Graph

Daily Weather History Graph

Search for Another Location

Airport or City:

Trip Planner

Search our weather history database for the weather conditions in past years. The results will help you decide how hot, cold, wet, or windy it might be!

Date:

Astronomy

Feb. 14, 2013 Rise Set
Actual Time 6:25 AM CST 5:29 PM CST
Civil Twilight 6:00 AM CST 5:54 PM CST
Nautical Twilight 5:31 AM CST 6:22 PM CST
Astronomical Twilight 5:03 AM CST 6:51 PM CST
Moon 8:48 AM CST (2/14) 10:08 PM CST (2/14)
Length of Visible Light 11h 54m
Length of Day
11h 04m
Waxing Crescent, 22% of the Moon is Illuminated
Feb 14
Waxing Crescent
Feb 17
First Quarter
Feb 25
Full
Mar 4
Last Quarter
Mar 11
New

Hourly Weather History & Observations

Time (CST) Temp. Windchill Dew Point Humidity Pressure Visibility Wind Dir Wind Speed Gust Speed Precip Events Conditions
12:53 AM 44.1 °F 42.5 °F 41.0 °F 89% 30.02 in 10.0 mi NNW 3.5 mph - N/A   Clear
1:53 AM 43.0 °F 41.3 °F 39.9 °F 89% 30.02 in 10.0 mi NNW 3.5 mph - N/A   Clear
2:53 AM 42.1 °F 39.2 °F 39.0 °F 89% 30.02 in 10.0 mi NNW 4.6 mph - N/A   Clear
3:53 AM 39.9 °F - 37.9 °F 93% 30.04 in 8.0 mi Calm Calm - N/A   Clear
4:53 AM 41.0 °F 35.8 °F 37.0 °F 86% 30.04 in 8.0 mi North 8.1 mph - N/A   Clear
5:53 AM 41.0 °F - 37.0 °F 86% 30.07 in 8.0 mi Calm Calm - N/A   Clear
6:53 AM 39.9 °F - 37.0 °F 89% 30.08 in 6.0 mi Calm Calm - N/A   Clear
7:53 AM 42.1 °F 39.2 °F 37.0 °F 82% 30.11 in 7.0 mi North 4.6 mph - N/A   Clear
8:53 AM 43.0 °F 41.3 °F 37.9 °F 82% 30.13 in 7.0 mi NE 3.5 mph - N/A   Clear
9:53 AM 45.0 °F 43.5 °F 37.9 °F 76% 30.13 in 8.0 mi NNE 3.5 mph - N/A   Clear
10:53 AM 46.0 °F 43.9 °F 37.9 °F 73% 30.13 in 10.0 mi North 4.6 mph - N/A   Clear
11:53 AM 48.9 °F - 37.9 °F 66% 30.11 in 10.0 mi NNE 4.6 mph - N/A   Clear
12:53 PM 50.0 °F - 39.0 °F 66% 30.07 in 10.0 mi Variable 3.5 mph - N/A   Clear
1:53 PM 52.0 °F - 39.0 °F 61% 30.05 in 10.0 mi Variable 3.5 mph - N/A   Clear
2:53 PM 54.0 °F - 37.9 °F 55% 30.03 in 10.0 mi North 5.8 mph - N/A   Clear
3:53 PM 55.9 °F - 37.9 °F 51% 30.02 in 10.0 mi NNW 5.8 mph - N/A   Clear
4:53 PM 55.9 °F - 37.0 °F 49% 30.03 in 10.0 mi North 3.5 mph - N/A   Clear
5:53 PM 48.9 °F - 39.9 °F 71% 30.05 in 10.0 mi Calm Calm - N/A   Clear
6:53 PM 43.0 °F - 39.9 °F 89% 30.07 in 10.0 mi Calm Calm - N/A   Clear
7:53 PM 42.1 °F - 39.0 °F 89% 30.09 in 8.0 mi Calm Calm - N/A   Clear
8:53 PM 39.9 °F - 37.0 °F 89% 30.09 in 5.0 mi Calm Calm - N/A   Clear
9:53 PM 37.9 °F - 36.0 °F 93% 30.10 in 5.0 mi Calm Calm - N/A   Clear
10:53 PM 36.0 °F - 34.0 °F 93% 30.09 in 6.0 mi Calm Calm - N/A   Clear
11:53 PM 35.1 °F - 34.0 °F 96% 30.08 in 6.0 mi Calm Calm - N/A   Clear